EZY34YT EGKK-LGZA

Flight info

Callsign EZY34YT
Flight time N/A
Altitude 33000
Route ODVIK Y311 DVR UL9 KONAN DCT KOK UL607 FERDI DCT REMBA DCT LIRSU DCT KRH DCT UTABA DCT BEMKI DCT ELMEM DCT DIRAB DCT VESAL DCT VAKSU DCT RODON DCT LIMJA DCT PITAS UN732 KRK UT321 ASTUS
Aircraft A320/M-SDE3FGHIRWY/LB1

Departure

Time 2026-05-05 15:44
Airport London Gatwick Airport (EGKK)

Arrival

Time N/A
Airport Zakynthos International Airport Dionysios Solomos (LGZA)
Time Latitude Longitude Altitude Speed Heading
2026-05-05 15:06 51.15659 -0.17694 204 ft 0 kts 167°
2026-05-05 15:28 51.15660 -0.17694 203 ft 2 kts 167°
2026-05-05 15:29 51.15685 -0.17702 208 ft 4 kts 173°
2026-05-05 15:29 51.15711 -0.17704 216 ft 4 kts 188°
2026-05-05 15:29 51.15734 -0.17691 211 ft 4 kts 236°
2026-05-05 15:29 51.15738 -0.17680 215 ft 0 kts 256°
2026-05-05 15:32 51.15736 -0.17692 208 ft 4 kts 257°
2026-05-05 15:32 51.15724 -0.17775 203 ft 11 kts 257°
2026-05-05 15:32 51.15703 -0.17935 215 ft 17 kts 255°
2026-05-05 15:32 51.15676 -0.18128 210 ft 19 kts 258°
2026-05-05 15:33 51.15646 -0.18344 206 ft 19 kts 257°
2026-05-05 15:33 51.15617 -0.18545 212 ft 18 kts 257°
2026-05-05 15:33 51.15592 -0.18728 203 ft 15 kts 258°
2026-05-05 15:33 51.15539 -0.18822 203 ft 12 kts 178°
2026-05-05 15:34 51.15455 -0.18794 211 ft 14 kts 167°
2026-05-05 15:34 51.15343 -0.18755 212 ft 18 kts 167°
2026-05-05 15:34 51.15228 -0.18714 204 ft 14 kts 167°
2026-05-05 15:34 51.15202 -0.18705 215 ft 0 kts 167°
2026-05-05 15:37 51.15200 -0.18704 215 ft 2 kts 168°
2026-05-05 15:37 51.15153 -0.18704 203 ft 11 kts 199°
2026-05-05 15:38 51.15113 -0.18857 214 ft 19 kts 259°
2026-05-05 15:38 51.15083 -0.19070 209 ft 19 kts 256°
2026-05-05 15:38 51.15056 -0.19265 215 ft 17 kts 258°
2026-05-05 15:38 51.15032 -0.19441 206 ft 15 kts 257°
2026-05-05 15:39 51.15010 -0.19600 208 ft 15 kts 258°
2026-05-05 15:39 51.14985 -0.19800 215 ft 20 kts 256°
2026-05-05 15:39 51.14954 -0.20006 213 ft 18 kts 258°
2026-05-05 15:39 51.14928 -0.20194 210 ft 16 kts 257°
2026-05-05 15:40 51.14905 -0.20360 203 ft 14 kts 256°
2026-05-05 15:40 51.14880 -0.20540 207 ft 20 kts 258°
2026-05-05 15:40 51.14849 -0.20769 205 ft 21 kts 257°
2026-05-05 15:40 51.14820 -0.20977 209 ft 18 kts 258°
2026-05-05 15:41 51.14791 -0.21157 212 ft 16 kts 246°
2026-05-05 15:41 51.14763 -0.21325 204 ft 16 kts 259°
2026-05-05 15:41 51.14691 -0.21394 207 ft 13 kts 163°
2026-05-05 15:41 51.14644 -0.21337 210 ft 0 kts 147°
2026-05-05 15:42 51.14643 -0.21336 210 ft 2 kts 148°
2026-05-05 15:42 51.14575 -0.21305 206 ft 17 kts 157°
2026-05-05 15:42 51.14522 -0.21155 202 ft 15 kts 77°
2026-05-05 15:43 51.14544 -0.20992 208 ft 20 kts 78°
2026-05-05 15:43 51.14616 -0.20473 214 ft 81 kts 77°
2026-05-05 15:43 51.14779 -0.19287 205 ft 136 kts 77°
2026-05-05 15:43 51.15018 -0.17550 302 ft 171 kts 77°
2026-05-05 15:44 51.15259 -0.15733 974 ft 170 kts 76°
2026-05-05 15:44 51.15512 -0.13885 1688 ft 176 kts 76°
2026-05-05 15:44 51.15792 -0.11865 1981 ft 197 kts 75°
2026-05-05 15:44 51.16109 -0.09593 2270 ft 222 kts 76°
2026-05-05 15:45 51.16462 -0.07059 2702 ft 244 kts 76°
2026-05-05 15:45 51.16825 -0.04366 3437 ft 252 kts 79°
2026-05-05 15:45 51.16875 -0.01540 4249 ft 258 kts 90°
2026-05-05 15:45 51.16821 0.01343 5185 ft 261 kts 89°
2026-05-05 15:46 51.16766 0.04256 5997 ft 266 kts 88°
2026-05-05 15:46 51.16707 0.07236 6785 ft 272 kts 90°
2026-05-05 15:46 51.16646 0.10270 7567 ft 276 kts 90°
2026-05-05 15:46 51.16585 0.13349 8348 ft 280 kts 90°
2026-05-05 15:47 51.16532 0.16475 9126 ft 284 kts 90°
2026-05-05 15:47 51.16522 0.19610 9900 ft 289 kts 89°
2026-05-05 15:47 51.16535 0.22828 10618 ft 292 kts 88°
2026-05-05 15:47 51.16554 0.26066 11379 ft 294 kts 89°
2026-05-05 15:48 51.16571 0.29331 12127 ft 295 kts 89°
2026-05-05 15:48 51.16585 0.32607 12871 ft 296 kts 89°
2026-05-05 15:48 51.16597 0.35897 13637 ft 297 kts 89°
2026-05-05 15:48 51.16601 0.39199 14268 ft 300 kts 89°
2026-05-05 15:49 51.16600 0.42540 14868 ft 302 kts 90°
2026-05-05 15:49 51.16596 0.45917 15460 ft 305 kts 89°
2026-05-05 15:49 51.16594 0.49325 16007 ft 310 kts 89°
2026-05-05 15:49 51.16592 0.52861 16158 ft 329 kts 89°
2026-05-05 15:50 51.16590 0.56600 16295 ft 346 kts 89°
2026-05-05 15:50 51.16587 0.60526 16430 ft 361 kts 89°
2026-05-05 15:50 51.16584 0.64574 16799 ft 369 kts 90°
2026-05-05 15:50 51.16578 0.68686 17289 ft 373 kts 89°
2026-05-05 15:51 51.16572 0.72841 17783 ft 377 kts 90°
2026-05-05 15:51 51.16564 0.76967 18258 ft 381 kts 90°
2026-05-05 15:51 51.16552 0.81280 18685 ft 385 kts 89°
2026-05-05 15:51 51.16538 0.85503 19120 ft 387 kts 90°
2026-05-05 15:52 51.16523 0.89811 19552 ft 390 kts 90°
2026-05-05 15:52 51.16506 0.94200 19959 ft 393 kts 90°
2026-05-05 15:52 51.16488 0.98571 20416 ft 395 kts 91°
2026-05-05 15:52 51.16469 1.02953 20845 ft 398 kts 91°
2026-05-05 15:53 51.16448 1.07328 21243 ft 401 kts 91°
2026-05-05 15:53 51.16425 1.11795 21646 ft 405 kts 91°
2026-05-05 15:53 51.16400 1.16300 22042 ft 408 kts 91°
2026-05-05 15:53 51.16373 1.20840 22416 ft 412 kts 91°
2026-05-05 15:54 51.16342 1.25417 22828 ft 414 kts 92°
2026-05-05 15:54 51.16308 1.30036 23192 ft 418 kts 91°
2026-05-05 15:54 51.16273 1.34745 23548 ft 421 kts 91°
2026-05-05 15:54 51.16189 1.39354 23889 ft 423 kts 93°
2026-05-05 15:55 51.16010 1.44050 24201 ft 425 kts 95°
2026-05-05 15:55 51.15770 1.48731 24617 ft 424 kts 96°
2026-05-05 15:55 51.15505 1.53409 24977 ft 425 kts 96°
2026-05-05 15:55 51.15235 1.58109 25305 ft 426 kts 98°
2026-05-05 15:56 51.14972 1.62816 25641 ft 428 kts 98°
2026-05-05 15:56 51.14722 1.67551 25958 ft 429 kts 97°
2026-05-05 15:56 51.14484 1.72302 26266 ft 431 kts 98°
2026-05-05 15:56 51.14250 1.77066 26584 ft 432 kts 96°
2026-05-05 15:57 51.14015 1.81847 26883 ft 434 kts 97°
2026-05-05 15:57 51.13776 1.86644 27192 ft 435 kts 97°
2026-05-05 15:57 51.13275 1.91372 27486 ft 432 kts 108°
2026-05-05 15:57 51.12305 1.95905 27811 ft 432 kts 112°
2026-05-05 15:58 51.11304 2.00421 28115 ft 434 kts 112°
2026-05-05 15:58 51.10276 2.04947 28385 ft 436 kts 112°
2026-05-05 15:58 51.09245 2.09498 28661 ft 437 kts 111°
2026-05-05 15:58 51.08219 2.14053 28939 ft 438 kts 112°
2026-05-05 15:59 51.07191 2.18623 29191 ft 440 kts 112°
2026-05-05 15:59 51.06141 2.23203 29413 ft 442 kts 111°
2026-05-05 15:59 51.05145 2.27844 29666 ft 445 kts 107°
2026-05-05 15:59 51.04755 2.32734 29918 ft 451 kts 91°
2026-05-05 16:00 51.05181 2.37679 30108 ft 456 kts 79°
2026-05-05 16:00 51.05927 2.42594 30311 ft 457 kts 77°
2026-05-05 16:00 51.06695 2.47488 30614 ft 456 kts 78°
2026-05-05 16:00 51.07471 2.52381 30907 ft 455 kts 78°
2026-05-05 16:01 51.08239 2.57251 31195 ft 454 kts 79°
2026-05-05 16:01 51.08730 2.62181 31473 ft 450 kts 89°
2026-05-05 16:01 51.08716 2.67134 31741 ft 446 kts 98°
2026-05-05 16:01 51.08223 2.71986 32021 ft 443 kts 106°
2026-05-05 16:02 51.07387 2.76673 32314 ft 441 kts 109°
2026-05-05 16:02 51.06531 2.81366 32625 ft 440 kts 109°
2026-05-05 16:02 51.05684 2.86026 32846 ft 439 kts 109°
2026-05-05 16:03 51.03995 2.95344 32913 ft 438 kts 109°
2026-05-05 16:03 51.02313 3.04571 32906 ft 437 kts 109°
2026-05-05 16:04 51.00606 3.13836 32901 ft 437 kts 109°
2026-05-05 16:04 50.98891 3.23095 32893 ft 437 kts 109°
2026-05-05 16:05 50.97170 3.32352 32880 ft 436 kts 109°
2026-05-05 16:05 50.95449 3.41551 32883 ft 434 kts 110°
2026-05-05 16:06 50.93721 3.50729 32883 ft 434 kts 110°
2026-05-05 16:06 50.91984 3.59905 32882 ft 434 kts 110°
2026-05-05 16:07 50.90246 3.69066 32884 ft 434 kts 110°
2026-05-05 16:07 50.88499 3.78224 32878 ft 434 kts 110°
2026-05-05 16:08 50.86753 3.87373 32884 ft 434 kts 110°
2026-05-05 16:08 50.84997 3.96492 32882 ft 433 kts 110°
2026-05-05 16:09 50.83229 4.05622 32886 ft 433 kts 110°
2026-05-05 16:09 50.81458 4.14737 32888 ft 433 kts 110°
2026-05-05 16:10 50.79681 4.23844 32884 ft 433 kts 110°
2026-05-05 16:10 50.77910 4.32899 32888 ft 431 kts 110°
2026-05-05 16:11 50.76128 4.41930 32892 ft 431 kts 110°
2026-05-05 16:12 50.72543 4.59987 32888 ft 431 kts 110°
2026-05-05 16:13 50.68023 4.82517 32871 ft 431 kts 111°
2026-05-05 16:13 50.66159 4.91496 32868 ft 429 kts 115°
2026-05-05 16:14 50.61105 5.08431 32865 ft 428 kts 118°
2026-05-05 16:15 50.55972 5.25408 32854 ft 431 kts 118°